Date,TemperatureHighF,TemperatureAvgF,TemperatureLowF,DewpointHighF,DewpointAvgF,DewpointLowF,HumidityHigh,HumidityAvg,HumidityLow,PressureMaxIn,PressureMinIn,WindSpeedMaxMPH,WindSpeedAvgMPH,GustSpeedMaxMPH,PrecipitationSumIn
2013-1-1,38.9,35.8,27.3,30.5,25.8,16.4,73,67,58,29.95,29.77,24,4,24,0.04
2013-1-2,30.4,27.2,22.3,20.2,16.3,12.4,70,63,57,30.11,29.94,22,2,23,0.01
2013-1-3,28.8,24.8,21.0,20.3,16.8,14.3,80,72,59,30.16,30.02,15,1,15,0.00
2013-1-4,37.4,30.6,22.8,25.6,21.6,17.0,83,70,57,30.04,29.88,23,3,23,0.00
2013-1-5,42.5,33.1,23.8,27.7,22.8,19.3,84,66,53,30.24,29.93,28,3,28,0.00
2013-1-6,44.2,33.8,24.7,34.9,28.4,20.8,91,81,61,30.19,29.93,17,1,17,0.00
2013-1-7,42.5,33.5,21.5,32.9,26.0,17.1,92,75,53,30.37,29.99,14,1,15,0.00
2013-1-8,48.4,33.0,20.3,35.8,26.7,16.6,94,79,56,30.40,30.30,22,2,23,0.00
2013-1-9,47.8,37.1,23.3,41.2,31.5,20.6,100,81,60,30.35,30.07,23,2,24,0.00
2013-1-10,46.7,41.7,36.3,34.4,28.8,26.8,73,60,50,30.51,30.15,23,3,24,0.00
2013-1-11,47.0,37.6,27.7,45.6,32.9,23.3,95,83,69,30.50,30.08,8,0,8,0.47
2013-1-12,47.0,43.3,41.4,45.6,42.0,40.1,96,95,95,30.14,30.02,10,0,10,0.11
2013-1-13,48.7,44.4,39.6,47.6,43.3,38.3,97,96,95,30.14,29.98,15,1,15,0.02
2013-1-14,55.5,48.3,36.4,54.2,44.7,31.0,97,88,64,30.24,29.90,14,2,14,0.06
2013-1-15,38.1,36.4,33.9,32.4,30.3,28.0,91,79,69,30.29,30.16,9,1,9,0.13
2013-1-16,36.4,34.9,33.3,34.8,33.0,29.0,95,93,77,30.19,29.74,14,1,14,0.80
2013-1-17,42.2,37.8,33.0,34.4,31.6,23.8,95,79,66,30.06,29.86,15,1,16,0.00
2013-1-18,33.2,27.0,16.8,24.0,13.7,7.7,77,57,45,30.41,29.97,15,3,15,0.00
2013-1-19,47.2,37.4,16.8,36.0,28.4,11.1,86,70,56,30.40,29.90,32,5,33,0.00
2013-1-20,54.4,43.8,30.5,36.0,28.8,15.2,76,57,34,29.97,29.63,33,6,36,0.00
2013-1-21,31.9,28.3,24.6,26.2,17.2,9.6,90,65,47,30.08,29.78,16,1,18,0.00
2013-1-22,26.5,20.1,12.7,23.6,7.2,-2.9,89,58,44,30.12,29.76,30,5,30,0.00
2013-1-23,18.8,14.6,11.1,2.8,0.2,-2.7,61,52,44,30.19,30.10,22,4,26,0.00
2013-1-24,20.8,15.2,4.2,7.2,2.6,-3.2,77,57,45,30.32,30.08,24,3,27,0.00
2013-1-25,23.5,18.7,12.3,15.8,8.4,2.3,85,64,48,30.36,30.01,15,2,15,0.00
2013-1-26,24.7,20.7,17.2,16.5,10.9,5.0,87,66,51,30.30,29.98,19,3,19,0.00
2013-1-27,30.9,22.6,12.3,14.9,10.6,5.3,81,60,45,30.46,30.30,19,2,19,0.00
2013-1-28,34.7,26.6,15.0,32.6,22.3,7.7,93,84,69,30.45,29.96,12,1,12,0.28
2013-1-29,40.2,36.1,33.2,36.2,33.8,31.4,94,91,84,30.14,29.95,8,0,8,0.02
2013-1-30,57.4,51.1,37.1,55.7,49.6,35.0,96,95,90,30.08,29.41,35,6,35,0.00
2013-1-31,58.2,45.8,29.3,56.2,34.1,13.2,95,65,41,29.70,29.04,46,12,52,0.55
2013-2-1,31.5,28.1,23.9,16.2,12.1,7.0,59,51,43,30.16,29.70,29,5,29,0.00
2013-2-2,29.6,25.3,19.3,20.4,12.4,8.5,84,58,43,30.26,30.04,22,4,23,0.00
2013-2-3,29.7,25.9,23.0,22.2,19.4,16.0,88,77,58,30.04,29.74,12,1,12,0.00
2013-2-4,30.5,25.8,21.2,20.5,13.7,10.4,83,61,46,29.95,29.74,28,4,28,0.00
2013-2-5,30.0,27.5,22.6,27.4,23.1,13.6,90,84,67,29.96,29.87,10,0,10,0.00
2013-2-6,39.2,32.1,27.0,29.4,23.5,10.4,92,72,45,30.31,29.88,24,2,24,0.05
2013-2-7,30.4,27.3,24.1,22.9,12.8,5.8,77,55,42,30.49,30.30,14,1,14,0.00
2013-2-8,34.7,31.8,23.3,31.2,28.9,21.6,94,89,72,30.33,29.49,20,4,20,0.21
2013-2-9,25.2,23.0,18.7,25.2,19.4,13.0,100,86,76,30.24,29.61,0,0,0,0.00
2013-2-10,31.0,21.4,13.6,22.2,14.9,8.7,85,76,61,30.43,30.24,6,0,7,0.07
2013-2-11,45.1,34.2,14.5,44.0,32.6,10.8,100,94,85,30.32,29.63,24,2,24,1.36
2013-2-12,43.2,38.0,33.5,37.6,30.6,24.8,96,76,57,29.91,29.66,15,4,30,0.11
2013-2-13,40.8,32.7,22.5,29.9,24.6,18.9,91,73,54,29.91,29.65,9,0,10,0.00
2013-2-14,41.6,34.0,27.9,32.7,27.6,23.5,94,79,50,29.98,29.67,11,0,11,0.07
2013-2-15,46.5,35.9,24.7,38.4,31.3,21.8,95,84,70,30.00,29.88,21,2,21,0.00
2013-2-16,37.6,34.0,29.3,35.5,28.1,22.4,92,79,64,29.91,29.64,15,2,15,0.01
2013-2-17,30.2,24.9,16.4,24.3,11.9,4.7,88,59,41,29.87,29.54,31,7,31,0.00
2013-2-18,31.0,23.0,16.5,14.5,10.0,5.1,70,57,46,30.19,29.86,30,4,32,0.00
2013-2-19,46.9,35.2,19.1,43.4,30.1,12.4,94,82,65,30.20,29.61,28,3,29,0.34
2013-2-20,37.7,30.8,24.3,35.6,19.1,12.4,92,62,49,29.90,29.63,31,7,31,0.00
2013-2-21,33.9,27.2,23.0,20.3,15.8,12.6,73,62,53,30.23,29.88,30,5,30,0.00
2013-2-22,36.3,30.8,24.8,27.7,23.2,17.1,82,73,65,30.37,30.22,14,2,16,0.00
2013-2-23,39.8,36.2,32.6,37.7,33.4,27.4,95,89,81,30.25,29.76,14,2,14,0.24
2013-2-24,41.2,36.2,31.9,37.5,33.3,28.9,95,90,75,29.89,29.68,18,2,18,0.01
2013-2-25,44.4,36.9,30.6,31.2,28.6,25.5,90,72,54,30.21,29.89,14,1,14,0.02
2013-2-26,42.2,36.9,33.2,33.6,31.3,29.3,96,80,64,30.28,29.92,16,1,16,0.13
2013-2-27,47.3,42.3,35.8,46.2,40.7,33.7,96,94,87,29.91,29.47,25,4,25,1.32
2013-2-28,47.4,39.9,35.7,42.1,36.9,33.3,95,89,74,29.59,29.50,15,1,15,0.42
2013-3-1,45.2,38.5,33.2,35.9,32.5,29.8,93,80,59,29.71,29.53,15,1,15,0.24
2013-3-2,39.2,35.8,32.6,30.0,27.4,25.9,80,71,62,29.72,29.63,13,2,15,0.07
2013-3-3,36.9,32.2,28.6,25.9,23.9,21.5,79,71,57,29.67,29.60,19,3,20,0.06
2013-3-4,42.2,33.9,28.7,26.5,22.9,19.9,72,64,50,29.82,29.66,29,5,29,0.00
2013-3-5,45.5,37.1,30.6,29.5,26.3,22.5,76,65,50,29.99,29.82,17,2,17,0.00
2013-3-6,40.7,37.1,30.5,35.4,32.2,25.1,92,82,73,29.98,29.82,25,5,25,0.01
2013-3-7,36.5,33.6,31.7,32.3,30.7,29.6,94,89,81,29.99,29.85,18,5,18,0.04
2013-3-8,38.3,33.5,31.1,33.0,30.8,29.3,95,90,73,30.10,29.91,16,2,16,0.05
2013-3-9,49.4,38.6,28.0,29.4,26.6,23.2,85,64,38,30.30,30.10,15,2,15,0.07
2013-3-10,46.3,34.5,24.8,36.5,29.5,21.8,93,82,67,30.37,30.28,11,1,13,0.60
2013-3-11,53.6,42.4,31.0,44.6,38.4,28.3,96,86,70,30.30,30.08,17,2,18,0.14
2013-3-12,53.5,50.9,44.8,52.1,48.6,43.1,95,92,85,30.09,29.65,37,6,37,0.03
2013-3-13,50.2,42.4,34.4,43.1,32.3,26.6,94,69,44,29.83,29.74,22,3,22,0.01
2013-3-14,38.7,33.4,29.6,29.8,19.4,13.3,75,57,45,29.88,29.79,30,5,33,0.03
2013-3-15,43.9,35.8,28.4,30.1,20.5,12.7,72,54,38,29.91,29.68,27,4,27,0.09
2013-3-16,37.6,33.8,31.0,29.1,25.1,18.5,90,71,49,29.86,29.73,20,1,22,0.02
2013-3-17,37.7,32.6,28.8,29.2,20.6,12.8,90,63,44,30.26,29.85,15,2,16,0.00
2013-3-18,35.4,31.4,26.1,30.2,18.2,12.0,92,59,44,30.39,30.03,15,2,16,0.09
2013-3-19,38.9,35.5,32.4,37.3,33.6,30.3,96,93,89,30.03,29.60,20,3,20,0.01
2013-3-20,45.1,35.5,28.7,32.0,22.9,19.4,91,61,43,29.83,29.74,31,4,31,0.05
2013-3-21,33.9,31.1,26.8,27.7,25.8,21.5,89,81,73,29.80,29.60,11,1,11,0.03
2013-3-22,42.0,33.9,27.1,26.0,21.2,16.4,74,60,43,29.82,29.66,25,4,26,0.05
2013-3-23,46.9,38.2,31.5,26.7,23.6,21.6,68,56,42,29.86,29.71,32,6,35,0.01
2013-3-24,44.7,37.2,27.2,27.6,24.0,19.3,76,59,46,29.90,29.68,15,1,15,0.05
2013-3-25,41.3,36.8,31.9,32.8,30.0,25.5,90,77,65,29.71,29.40,19,2,19,0.00
2013-3-26,49.6,39.4,35.2,33.5,30.9,28.9,84,72,49,29.70,29.51,12,2,14,0.00